Home > Weather > Inuvik > Past weeks

Flag for Canada Weather for the Past 2 Weeks in Inuvik, Northwest Territories, Canada

Now
28 °F

Partly sunny.


Feels Like: 25 °F
Forecast: 24 / 40 °F
Wind: 3 mph from West

Location: Inuvik

Current Time: Apr 29, 2016 at 3:05:28 AM

Latest Report: Apr 29, 2016 at 2:00 AM


Visibility: 15 mi

Pressure: 29.85 "Hg

Humidity: 93%

Dew Point: 27 °F

Location of InuvikLocation

Historic Weather in Inuvik — Graph

°F

Inuvik Temperature Yesterday

Maximum temperature yesterday: 45 °F (at 5:00 PM)
Minimum temperature yesterday: 36 °F (at 5:00 AM)
Average temperature yesterday: 40 °F

High & Low Weather Summary for the Past Weeks

 TemperatureHumidityPressure
High45 °F (Apr 28, 5:00 PM)93% (Apr 18, 12:00 AM)30.57 "Hg (Apr 18, 12:00 AM)
Low-8 °F (Apr 14, 8:00 AM)40% (Apr 22, 2:00 PM)29.82 "Hg (Apr 28, 5:00 PM)
Average22 °F70%30.14 "Hg
* Reported Apr 14 1:00 AM — Apr 29 1:00 AM, Inuvik, Weather by CustomWeather, © 2016

Note: Actual official high and low records may vary slightly from our data, if they occured in-between our weather recording intervals... More about our weather records

Advertising

Inuvik Weather History for the Previous 24 Hours

Scroll right to see more
 ConditionsComfort  
Time TempWeatherWind HumidityBarometerVisibility
1:00 AM
Fri, Apr 29
30 °FPassing clouds.3 mph93%29.84 "Hg15 mi
12:00 AM34 °FPassing clouds.No wind81%29.84 "Hg15 mi
11:00 PM
Thu, Apr 28
37 °FPassing clouds.3 mph70%29.83 "Hg15 mi
10:00 PM43 °FPassing clouds.No wind61%29.82 "Hg15 mi
9:00 PM43 °FScattered clouds.3 mph61%29.82 "Hg15 mi
8:00 PM43 °FScattered clouds.6 mph61%29.82 "Hg15 mi
7:00 PM43 °FScattered clouds.5 mph61%29.82 "Hg15 mi
6:00 PM45 °FScattered clouds.5 mph57%29.82 "Hg15 mi
5:00 PM45 °FBroken clouds.7 mph57%29.82 "Hg15 mi
4:00 PM43 °FBroken clouds.6 mph61%29.83 "Hg15 mi
3:00 PM43 °FBroken clouds.8 mph61%29.82 "Hg15 mi
2:00 PM43 °FBroken clouds.7 mph61%29.82 "Hg15 mi
1:00 PM41 °FPartly sunny.6 mph66%29.82 "Hg15 mi
12:00 PM41 °FPartly sunny.6 mph61%29.83 "Hg15 mi
11:00 AM39 °FPartly sunny.5 mph70%29.83 "Hg15 mi
10:00 AM37 °FPartly sunny.7 mph70%29.83 "Hg15 mi
9:00 AM37 °FPartly sunny.7 mph70%29.83 "Hg15 mi
8:00 AM36 °FPassing clouds.7 mph75%29.83 "Hg15 mi
7:00 AM36 °FPassing clouds.7 mph75%29.83 "Hg15 mi
6:00 AM36 °FPassing clouds.7 mph75%29.83 "Hg15 mi
5:00 AM36 °FPassing clouds.7 mph75%29.84 "Hg15 mi
4:00 AM37 °FPassing clouds.7 mph70%29.84 "Hg15 mi
3:00 AM37 °FPassing clouds.5 mph75%29.85 "Hg15 mi
Weather by CustomWeather, © 2016

See weather overviewHow to use our weather pages